Weather History for KRNH - December, 2012

Change the Weather History Date:

Monday, December 10, 2012

  Actual Average (KMSP) Record (KMSP)
Temperature  
Mean Temperature 10 °F 21 °F  
Max Temperature 23 °F 29 °F 54 °F (1979)
Min Temperature -2 °F 14 °F -18 °F (1977)
Degree Days  
Heating Degree Days 54 44  
Month to date heating degree days 419  
Since 1 July heating degree days 2038  
Cooling Degree Days 0 0  
Month to date cooling degree days 0  
Year to date cooling degree days 753  
Moisture  
Dew Point 8 °F    
Average Humidity 88    
Maximum Humidity 100    
Minimum Humidity 73    
Precipitation  
Precipitation 0.00 in 0.04 in 0.61 in (1911)
Month to date precipitation 0.42  
Year to date precipitation 29.87  
Snow  
Snow 0.00 in 0.40 in 1.80 in (2013)
Month to date snowfall 4.1  
Since 1 July snowfall 14.0  
Snow Depth -    
Sea Level Pressure  
Sea Level Pressure 29.89 in    
Wind  
Wind Speed 10 mph (WNW)    
Max Wind Speed 18 mph    
Max Gust Speed 23 mph    
Visibility 7 miles    
Events Snow    
T = Trace of Precipitation, MM = Missing Value Source: NWS Daily Summary

Daily Weather History Graph

Daily Weather History Graph

Search for Another Location

Airport or City:

Trip Planner

Search our weather history database for the weather conditions in past years. The results will help you decide how hot, cold, wet, or windy it might be!

Date:

Astronomy

Dec. 10, 2012 Rise Set
Actual Time 7:38 AM CST 4:27 PM CST
Civil Twilight 7:04 AM CST 5:01 PM CST
Nautical Twilight 6:27 AM CST 5:38 PM CST
Astronomical Twilight 5:51 AM CST 6:14 PM CST
Moon 4:17 AM CST (12/10) 2:21 PM CST (12/10)
Length of Visible Light 9h 57m
Length of Day
8h 49m
Waning Crescent, 10% of the Moon is Illuminated
Dec 10
Waning Crescent
Dec 13
New
Dec 19
First Quarter
Dec 28
Full
Jan 4
Last Quarter

Hourly Weather History & Observations

Time (CST) Temp. Windchill Dew Point Humidity Pressure Visibility Wind Dir Wind Speed Gust Speed Precip Events Conditions
12:15 AM 23.0 °F 9.6 °F 21.2 °F 93% 29.85 in 3.0 mi NNW 16.1 mph 20.7 mph N/A Snow Light Snow
12:35 AM 23.0 °F 9.6 °F 21.2 °F 93% 29.86 in 4.0 mi NNW 16.1 mph 23.0 mph N/A Snow Light Snow
12:55 AM 21.2 °F 7.3 °F 21.2 °F 100% 29.86 in 3.0 mi NNW 16.1 mph 20.7 mph N/A Snow Light Snow
1:15 AM 21.2 °F 7.3 °F 19.4 °F 93% 29.87 in 4.0 mi NNW 16.1 mph - N/A   Overcast
1:35 AM 19.4 °F 4.1 °F 17.6 °F 93% 29.88 in 5.0 mi NNW 18.4 mph - N/A   Overcast
1:55 AM 19.4 °F 5.5 °F 17.6 °F 93% 29.88 in 10.0 mi NNW 15.0 mph - N/A Snow Light Snow
2:15 AM 17.6 °F 4.3 °F 15.8 °F 93% 29.88 in 10.0 mi NNW 12.7 mph - N/A   Overcast
2:55 AM 17.6 °F 4.3 °F 15.8 °F 93% 29.89 in 3.0 mi NNW 12.7 mph - N/A Snow Light Snow
3:15 AM 17.6 °F 4.3 °F 15.8 °F 93% 29.89 in 3.0 mi NW 12.7 mph - N/A Snow Light Snow
3:35 AM 17.6 °F 3.7 °F 14.0 °F 86% 29.89 in 3.0 mi NNW 13.8 mph - N/A Snow Light Snow
3:55 AM 17.6 °F 5.0 °F 14.0 °F 86% 29.89 in 2.5 mi NW 11.5 mph - N/A Snow Light Snow
4:15 AM 15.8 °F 0.9 °F 14.0 °F 93% 29.89 in 2.5 mi NNW 15.0 mph - N/A Snow Light Snow
4:35 AM 15.8 °F 1.4 °F 14.0 °F 93% 29.88 in 3.0 mi NNW 13.8 mph - N/A Snow Light Snow
4:55 AM 15.8 °F 4.2 °F 14.0 °F 93% 29.88 in 3.0 mi NW 9.2 mph - N/A Snow Light Snow
5:15 AM 14.0 °F 1.2 °F 12.2 °F 93% 29.89 in 3.0 mi NW 10.4 mph - N/A Snow Light Snow
5:35 AM 14.0 °F -0.2 °F 12.2 °F 93% 29.89 in 3.0 mi NW 12.7 mph - N/A Snow Light Snow
5:55 AM 14.0 °F 3.9 °F 12.2 °F 93% 29.89 in 3.0 mi NW 6.9 mph - N/A Snow Light Snow
6:15 AM 14.0 °F 1.2 °F 12.2 °F 93% 29.89 in 2.0 mi NW 10.4 mph - N/A Snow Light Snow
6:35 AM 12.2 °F -1.8 °F 10.4 °F 92% 29.90 in 2.5 mi NW 11.5 mph - N/A Snow Light Snow
6:55 AM 12.2 °F -0.2 °F 10.4 °F 92% 29.90 in 4.0 mi NW 9.2 mph - N/A Snow Light Snow
7:15 AM 12.2 °F -0.2 °F 10.4 °F 92% 29.90 in 10.0 mi NW 9.2 mph - N/A Snow Light Snow
7:35 AM 12.2 °F 0.7 °F 10.4 °F 92% 29.91 in 4.0 mi NW 8.1 mph - N/A Snow Light Snow
7:55 AM 12.2 °F 1.7 °F 10.4 °F 92% 29.91 in 2.5 mi NW 6.9 mph - N/A Snow Light Snow
8:15 AM 12.2 °F 2.9 °F 8.6 °F 85% 29.91 in 2.5 mi NW 5.8 mph - N/A Snow Light Snow
8:35 AM 12.2 °F 1.7 °F 8.6 °F 85% 29.91 in 3.0 mi NW 6.9 mph - N/A Snow Light Snow
8:55 AM 12.2 °F 0.7 °F 8.6 °F 85% 29.91 in 3.0 mi NW 8.1 mph - N/A Snow Light Snow
9:15 AM 12.2 °F 1.7 °F 8.6 °F 85% 29.91 in 4.0 mi NW 6.9 mph - N/A Snow Light Snow
9:35 AM 12.2 °F 0.7 °F 8.6 °F 85% 29.92 in 3.0 mi NW 8.1 mph - N/A Snow Light Snow
9:55 AM 12.2 °F 2.9 °F 8.6 °F 85% 29.92 in 10.0 mi NW 5.8 mph - N/A Snow Light Snow
10:15 AM 12.2 °F -1.0 °F 8.6 °F 85% 29.92 in 7.0 mi WNW 10.4 mph - N/A Snow Light Snow
10:35 AM 12.2 °F 1.7 °F 8.6 °F 85% 29.93 in 5.0 mi NW 6.9 mph - N/A Snow Light Snow
10:55 AM 12.2 °F 1.7 °F 8.6 °F 85% 29.92 in 5.0 mi NW 6.9 mph - N/A Snow Light Snow
11:15 AM 12.2 °F 4.3 °F 8.6 °F 85% 29.92 in 7.0 mi NW 4.6 mph - N/A Snow Light Snow
11:35 AM 12.2 °F 6.1 °F 8.6 °F 85% 29.91 in 4.0 mi NW 3.5 mph - N/A Snow Light Snow
11:55 AM 14.0 °F 5.1 °F 10.4 °F 86% 29.91 in 10.0 mi West 5.8 mph - N/A   Overcast
12:15 PM 14.0 °F 8.2 °F 10.4 °F 86% 29.90 in 10.0 mi West 3.5 mph - N/A Snow Light Snow
12:35 PM 14.0 °F 8.2 °F 10.4 °F 86% 29.89 in 10.0 mi West 3.5 mph - N/A Snow Light Snow
12:55 PM 14.0 °F 6.5 °F 10.4 °F 86% 29.89 in 7.0 mi West 4.6 mph - N/A Snow Light Snow
1:15 PM 14.0 °F 8.2 °F 10.4 °F 86% 29.89 in 10.0 mi West 3.5 mph - N/A Snow Light Snow
1:35 PM 15.8 °F - 10.4 °F 79% 29.88 in 10.0 mi Calm Calm - N/A   Mostly Cloudy
1:55 PM 17.6 °F 8.2 °F 10.4 °F 73% 29.88 in 10.0 mi West 6.9 mph - N/A   Mostly Cloudy
2:15 PM 17.6 °F 12.3 °F 10.4 °F 73% 29.88 in 10.0 mi WSW 3.5 mph - N/A   Mostly Cloudy
2:35 PM 15.8 °F - 10.4 °F 79% 29.87 in 10.0 mi Calm Calm - N/A   Scattered Clouds
2:55 PM 14.0 °F 8.2 °F 10.4 °F 86% 29.88 in 10.0 mi WSW 3.5 mph - N/A   Clear
3:15 PM 14.0 °F - 10.4 °F 86% 29.87 in 10.0 mi Calm Calm - N/A   Clear
3:35 PM 14.0 °F 8.2 °F 10.4 °F 86% 29.88 in 10.0 mi WSW 3.5 mph - N/A   Clear
3:55 PM 12.2 °F 6.1 °F 8.6 °F 85% 29.88 in 10.0 mi WSW 3.5 mph - N/A   Clear
4:15 PM 8.6 °F - 5.0 °F 85% 29.88 in 7.0 mi Calm Calm - N/A   Clear
4:35 PM 10.4 °F - 10.4 °F 100% 29.88 in 10.0 mi Calm Calm - N/A   Clear
4:55 PM 8.6 °F 2.0 °F 6.8 °F 92% 29.88 in 10.0 mi WSW 3.5 mph - N/A   Clear
5:15 PM 5.0 °F -2.1 °F 5.0 °F 100% 29.89 in 7.0 mi SW 3.5 mph - N/A   Clear
5:35 PM 3.2 °F - 1.4 °F 92% 29.89 in 2.5 mi Calm Calm - N/A   Clear
5:55 PM 6.8 °F - 3.2 °F 85% 29.90 in 3.0 mi Calm Calm - N/A   Clear
6:15 PM 5.0 °F -2.1 °F 1.4 °F 85% 29.90 in 10.0 mi SSW 3.5 mph - N/A   Clear
6:35 PM 1.4 °F -6.2 °F -0.4 °F 92% 29.90 in 7.0 mi South 3.5 mph - N/A   Clear
6:55 PM 5.0 °F -2.1 °F 1.4 °F 85% 29.89 in 10.0 mi South 3.5 mph - N/A   Clear
7:15 PM 6.8 °F -0.1 °F 5.0 °F 92% 29.89 in 10.0 mi South 3.5 mph - N/A   Clear
7:35 PM 5.0 °F -2.1 °F 3.2 °F 92% 29.89 in 7.0 mi South 3.5 mph - N/A Snow Light Snow
7:55 PM 1.4 °F -6.2 °F -0.4 °F 92% 29.89 in 5.0 mi SSE 3.5 mph - N/A Snow Light Snow
8:15 PM 1.4 °F -6.2 °F -0.4 °F 92% 29.89 in 7.0 mi SSE 3.5 mph - N/A   Clear
8:55 PM 1.4 °F -6.2 °F -0.4 °F 92% 29.88 in 10.0 mi SSE 3.5 mph - N/A   Clear
9:15 PM 1.4 °F -6.2 °F -0.4 °F 92% 29.88 in 10.0 mi SSE 3.5 mph - N/A   Clear
9:35 PM 1.4 °F -9.9 °F -2.2 °F 85% 29.88 in 10.0 mi South 5.8 mph - N/A   Clear
9:55 PM 1.4 °F -8.3 °F -2.2 °F 85% 29.89 in 10.0 mi SSW 4.6 mph - N/A   Clear
10:15 PM 1.4 °F -9.9 °F -2.2 °F 85% 29.87 in 10.0 mi SSE 5.8 mph - N/A   Clear
10:35 PM -0.4 °F -13.4 °F -4.0 °F 85% 29.88 in 10.0 mi South 6.9 mph - N/A   Clear
10:55 PM 1.4 °F -8.3 °F -4.0 °F 78% 29.88 in 10.0 mi South 4.6 mph - N/A   Clear
11:15 PM -0.4 °F -10.4 °F -4.0 °F 85% 29.87 in 10.0 mi SSE 4.6 mph - N/A   Clear
11:35 PM -2.2 °F -14.2 °F -5.8 °F 85% 29.86 in 10.0 mi SSE 5.8 mph - N/A   Clear
11:55 PM -0.4 °F -8.3 °F -5.8 °F 78% 29.85 in 10.0 mi SSE 3.5 mph - N/A   Scattered Clouds